• In Portugal
  • List of Countries
  • For 7 days
  • Water Temperature
  • Satellite Maps
  • Weather Map
  • Weather Widgets
  • user-avatar
    Login

    Hourly Weather Shannon

    Today, 21 November, Tuesday

    Time Temperature Precipitation Wind Pressure Humidity
    00:00 +13°C° 0 mm 4 mps 756 mmHg 95%
    01:00 +12°C° 0 mm 4 mps 756 mmHg 95%
    02:00 +12°C° 0 mm 4 mps 755 mmHg 95%
    03:00 +12°C° 0 mm 4 mps 755 mmHg 95%
    04:00 +12°C° 0 mm 4 mps 754 mmHg 95%
    05:00 +12°C° 0 mm 4 mps 754 mmHg 95%
    06:00 +12°C° 0.2 mm 4 mps 753 mmHg 95%
    07:00 +13°C° 0.2 mm 4 mps 753 mmHg 94%
    08:00 +13°C° 0.2 mm 5 mps 752 mmHg 94%
    09:00 +13°C° 0.1 mm 5 mps 752 mmHg 93%
    10:00 +14°C° 0.1 mm 5 mps 751 mmHg 92%
    11:00 +14°C° 0.1 mm 6 mps 751 mmHg 91%
    12:00 +14°C° 0 mm 6 mps 750 mmHg 91%
    13:00 +14°C° 0 mm 6 mps 750 mmHg 90%
    14:00 +14°C° 0 mm 6 mps 749 mmHg 89%
    15:00 +14°C° 0 mm 5 mps 749 mmHg 91%
    16:00 +13°C° 0 mm 5 mps 749 mmHg 92%
    17:00 +12°C° 0 mm 4 mps 749 mmHg 94%
    18:00 +12°C° 0 mm 4 mps 749 mmHg 94%
    19:00 +12°C° 0 mm 4 mps 748 mmHg 94%
    20:00 +12°C° 0 mm 4 mps 748 mmHg 95%
    21:00 +12°C° 0.2 mm 3 mps 747 mmHg 95%
    22:00 +12°C° 0.2 mm 3 mps 747 mmHg 96%
    23:00 +13°C° 0.2 mm 2 mps 746 mmHg 97%

    Tomorrow, 22 November, Wednesday

    Time Temperature Precipitation Wind Pressure Humidity
    00:00 +13°C° 2.1 mm 2 mps 745 mmHg 96%
    01:00 +12°C° 2.1 mm 3 mps 744 mmHg 96%
    02:00 +13°C° 2.1 mm 3 mps 742 mmHg 96%
    03:00 +13°C° 3 mm 3 mps 741 mmHg 96%
    04:00 +13°C° 3 mm 4 mps 740 mmHg 95%
    05:00 +13°C° 3 mm 4 mps 738 mmHg 95%
    06:00 +13°C° 3 mm 5 mps 737 mmHg 95%
    07:00 +13°C° 3 mm 5 mps 736 mmHg 94%
    08:00 +13°C° 3 mm 6 mps 736 mmHg 94%
    09:00 +12°C° 0.7 mm 4 mps 735 mmHg 94%
    10:00 +12°C° 0.7 mm 3 mps 735 mmHg 94%
    11:00 +13°C° 0.7 mm 2 mps 734 mmHg 94%
    12:00 +13°C° 1.3 mm 2 mps 734 mmHg 94%
    13:00 +13°C° 1.3 mm 2 mps 733 mmHg 95%
    14:00 +12°C° 1.3 mm 3 mps 732 mmHg 96%
    15:00 +11°C° 1.9 mm 4 mps 732 mmHg 95%
    16:00 +10°C° 1.9 mm 5 mps 732 mmHg 94%
    17:00 +10°C° 1.9 mm 6 mps 732 mmHg 93%
    18:00 +9°C° 0.3 mm 6 mps 732 mmHg 92%
    19:00 +7°C° 0.3 mm 6 mps 733 mmHg 90%
    20:00 +5°C° 0.3 mm 7 mps 733 mmHg 88%
    21:00 +4°C° 0 mm 7 mps 734 mmHg 86%
    22:00 +4°C° 0 mm 6 mps 735 mmHg 83%
    23:00 +3°C° 0 mm 6 mps 736 mmHg 80%

    Day after tomorrow, 23 November, Thursday

    Time Temperature Precipitation Wind Pressure Humidity
    00:00 +3°C° 0 mm 7 mps 736 mmHg 79%
    01:00 +2°C° 0 mm 8 mps 736 mmHg 77%
    02:00 +2°C° 0 mm 9 mps 736 mmHg 75%
    03:00 +2°C° 0 mm 10 mps 736 mmHg 73%
    04:00 +2°C° 0 mm 11 mps 736 mmHg 71%
    05:00 +3°C° 0 mm 11 mps 735 mmHg 68%
    06:00 +3°C° 0.1 mm 12 mps 736 mmHg 68%
    07:00 +4°C° 0.1 mm 12 mps 736 mmHg 68%
    08:00 +5°C° 0.1 mm 12 mps 737 mmHg 69%
    09:00 +6°C° 0 mm 11 mps 739 mmHg 68%
    10:00 +7°C° 0 mm 11 mps 740 mmHg 67%
    11:00 +7°C° 0 mm 10 mps 742 mmHg 66%
    12:00 +7°C° 0.1 mm 9 mps 743 mmHg 68%
    13:00 +6°C° 0.1 mm 8 mps 744 mmHg 70%
    14:00 +7°C° 0.1 mm 6 mps 745 mmHg 72%
    15:00 +5°C° 0 mm 6 mps 746 mmHg 75%
    16:00 +5°C° 0 mm 5 mps 747 mmHg 77%
    17:00 +4°C° 0 mm 4 mps 748 mmHg 80%
    18:00 +4°C° 0 mm 4 mps 749 mmHg 81%
    19:00 +4°C° 0 mm 3 mps 749 mmHg 82%
    20:00 +3°C° 0 mm 3 mps 750 mmHg 83%
    21:00 +4°C° 0 mm 2 mps 750 mmHg 84%
    22:00 +4°C° 0 mm 2 mps 751 mmHg 84%
    23:00 +4°C° 0 mm 2 mps 751 mmHg 85%

    24 November, Friday

    Time Temperature Precipitation Wind Pressure Humidity
    00:00 +5°C° 0 mm 1 mps 752 mmHg 85%
    01:00 +4°C° 0 mm 1 mps 752 mmHg 86%
    02:00 +4°C° 0 mm 1 mps 752 mmHg 86%
    03:00 +4°C° 0 mm 1 mps 752 mmHg 86%
    04:00 +4°C° 0 mm 1 mps 752 mmHg 85%
    05:00 +4°C° 0 mm 1 mps 752 mmHg 85%
    06:00 +5°C° 0 mm 1 mps 752 mmHg 85%
    07:00 +5°C° 0 mm 1 mps 752 mmHg 85%
    08:00 +4°C° 0 mm 2 mps 752 mmHg 85%
    09:00 +4°C° 0 mm 2 mps 752 mmHg 83%
    10:00 +5°C° 0 mm 2 mps 752 mmHg 81%
    11:00 +5°C° 0 mm 3 mps 752 mmHg 79%
    12:00 +4°C° 0 mm 3 mps 752 mmHg 79%
    13:00 +4°C° 0 mm 3 mps 751 mmHg 80%
    14:00 +4°C° 0 mm 3 mps 751 mmHg 81%
    15:00 +4°C° 0.1 mm 3 mps 751 mmHg 83%
    16:00 +3°C° 0.1 mm 4 mps 751 mmHg 85%
    17:00 +3°C° 0.1 mm 4 mps 751 mmHg 87%
    18:00 +3°C° 0.1 mm 4 mps 751 mmHg 85%
    19:00 +2°C° 0.1 mm 5 mps 751 mmHg 83%
    20:00 +2°C° 0.1 mm 5 mps 751 mmHg 82%
    21:00 +2°C° 0 mm 5 mps 751 mmHg 80%
    22:00 +2°C° 0 mm 6 mps 752 mmHg 79%
    23:00 +2°C° 0 mm 6 mps 752 mmHg 78%

    25 November, Saturday

    Time Temperature Precipitation Wind Pressure Humidity
    00:00 +2°C° 0 mm 6 mps 752 mmHg 77%
    01:00 +1°C° 0 mm 6 mps 753 mmHg 76%
    02:00 +1°C° 0 mm 6 mps 754 mmHg 75%
    03:00 +1°C° 0.1 mm 6 mps 754 mmHg 75%
    04:00 +1°C° 0.1 mm 6 mps 755 mmHg 75%
    05:00 +1°C° 0.1 mm 6 mps 755 mmHg 75%
    06:00 +1°C° 0.2 mm 6 mps 756 mmHg 75%
    07:00 +1°C° 0.2 mm 5 mps 757 mmHg 75%
    08:00 +1°C° 0.2 mm 5 mps 757 mmHg 75%
    09:00 +2°C° 0.3 mm 6 mps 758 mmHg 74%
    10:00 +2°C° 0.3 mm 6 mps 758 mmHg 72%
    11:00 +3°C° 0.3 mm 6 mps 759 mmHg 71%
    12:00 +3°C° 0.4 mm 6 mps 759 mmHg 72%
    13:00 +3°C° 0.4 mm 6 mps 760 mmHg 73%
    14:00 +2°C° 0.4 mm 6 mps 760 mmHg 74%
    15:00 +2°C° 0.2 mm 6 mps 761 mmHg 76%
    16:00 +1°C° 0.2 mm 5 mps 761 mmHg 78%
    17:00 +1°C° 0.2 mm 5 mps 762 mmHg 80%
    18:00 +1°C° 0.1 mm 5 mps 762 mmHg 81%
    19:00 0°C° 0.1 mm 5 mps 763 mmHg 81%
    20:00 0°C° 0.1 mm 5 mps 763 mmHg 82%
    21:00 0°C° 0.1 mm 5 mps 764 mmHg 81%
    22:00 +1°C° 0.1 mm 5 mps 764 mmHg 81%
    23:00 +1°C° 0.1 mm 5 mps 765 mmHg 81%

    26 November, Sunday

    Time Temperature Precipitation Wind Pressure Humidity
    00:00 +1°C° 0.1 mm 5 mps 765 mmHg 81%
    01:00 +1°C° 0.1 mm 5 mps 765 mmHg 81%
    02:00 +1°C° 0.1 mm 5 mps 765 mmHg 82%
    03:00 +1°C° 0 mm 5 mps 766 mmHg 82%
    04:00 +1°C° 0 mm 5 mps 766 mmHg 83%
    05:00 +1°C° 0 mm 5 mps 766 mmHg 84%
    06:00 +1°C° 0 mm 5 mps 767 mmHg 84%
    07:00 +1°C° 0 mm 4 mps 767 mmHg 85%
    08:00 +1°C° 0 mm 4 mps 768 mmHg 85%
    09:00 +3°C° 0 mm 4 mps 768 mmHg 83%
    10:00 +4°C° 0 mm 4 mps 768 mmHg 80%
    11:00 +5°C° 0 mm 4 mps 769 mmHg 78%
    12:00 +5°C° 0 mm 4 mps 768 mmHg 79%
    13:00 +5°C° 0 mm 4 mps 768 mmHg 81%
    14:00 +5°C° 0 mm 4 mps 768 mmHg 82%
    15:00 +5°C° 0 mm 4 mps 767 mmHg 84%
    16:00 +4°C° 0 mm 4 mps 767 mmHg 87%
    17:00 +4°C° 0 mm 4 mps 767 mmHg 89%
    18:00 +3°C° 0 mm 5 mps 766 mmHg 88%
    19:00 +5°C° 0 mm 5 mps 766 mmHg 88%
    20:00 +5°C° 0 mm 5 mps 765 mmHg 88%
    21:00 +5°C° 0.3 mm 6 mps 764 mmHg 88%
    22:00 +5°C° 0.3 mm 7 mps 763 mmHg 88%
    23:00 +6°C° 0.3 mm 7 mps 762 mmHg 88%
    Show more